Regional Weather Roundup
Issued by NWS

Home | Current Version | Previous Version | Text Only | Print | Product List | Glossary On
Versions: 1 2 3 4 5 6 7 8 9 10 11 12 13 14 15 16 17 18 19 20 21 22 23 24 25 26 27 28 29 30 31 32 33 34 35 36 37 38 39 40 41 42 43 44 45 46 47 48 49 50
000
ASUS43 KDTX 080701
RWRMI
MICHIGAN HOURLY REGIONAL WEATHER ROUNDUP
NATIONAL WEATHER SERVICE DETROIT/PONTIAC MI
300 AM EDT WED JUL 08 2015

NOTE: "FAIR" INDICATES FEW OR NO CLOUDS BELOW 12,000 FEET WITH NO
SIGNIFICANT WEATHER AND/OR OBSTRUCTION TO VISIBILITY.

MIZ047>049-052>055-059>063-066>070-074>076-081>083-080800-
SOUTHEAST LOWER MICHIGAN

CITY           SKY/WX    TMP DP  RH WIND       PRES   REMARKS
ADRIAN         CLOUDY    60  58  92 N3        30.07R
ALMA           CLEAR     52  49  92 N3        30.11S
ANN ARBOR      MOCLDY    60  54  80 N9        30.06S
BAD AXE        CLOUDY    54  52  94 CALM      30.10R
CARO           CLEAR     51  51  99 CALM      30.09R FOG
DETROIT CITY   CLOUDY    59  51  75 NE5       30.08R
DETROIT        CLOUDY    62  54  74 N12       30.07R
FLINT          PTCLDY    57  51  80 CALM      30.08S
GROSSE ILE     CLOUDY    61  55  82 N8        30.05R
HILLSDALE      MOCLDY    57  55  94 CALM      30.08R
HOWELL         CLOUDY    57  53  85 N3        30.08R

CITY           SKY/WX    TMP DP  RH WIND       PRES   REMARKS
JACKSON        MOCLDY    56  50  80 N6        30.09R
LAMBERTVILLE   CLOUDY    63  58  84 CALM      30.07R
LANSING        CLEAR     52  49  89 N5        30.09S
LAPEER         FOG       50  49  96 CALM      30.08S VSB 1
MASON          PTCLDY    52  48  87 CALM      30.09R
MONROE         CLOUDY    62  59  91 CALM      30.06R
MT. CLEMENS    PTCLDY    55  52  88 NW5       30.05S
PONTIAC        PTCLDY    56  51  84 NE6       30.07R
PORT HOPE        N/A     58  54  86 CALM      30.07S
PORT HURON     CLEAR     52  52 100 NW3       30.07R
TRI CITIES     MOCLDY    55  50  83 N6        30.11R
MIDLAND        FAIR      48  47  97 N3        30.10S
TROY           PTCLDY    59  51  75 NE5       30.10R
SAGINAW HB     MOCLDY    55  52  88 NW7       30.08S
$$
MIZ043>046-050>051-056>058-064>065-071>073-077>080-080800-
SOUTHWEST LOWER MICHIGAN

CITY           SKY/WX    TMP DP  RH WIND       PRES   REMARKS
BATTLE CREEK   PTCLDY    55  51  86 N5        30.09S
BENTON HARBOR  MOCLDY    53  50  89 NE5       30.08F
BIG RAPIDS     CLEAR     48  46  91 CALM      30.11S
COLDWATER      MOCLDY    54  53  97 CALM      30.09R
FREMONT        FAIR      50  49  95 CALM      30.11R
HOLLAND        PTCLDY    55  49  80 CALM      30.11S
GRAND RAPIDS   CLEAR     53  49  86 N5        30.10S
IONIA          FAIR      52  49  90 NE5       30.09S
KALAMAZOO      MOCLDY    55  52  89 N3        30.10R
LUDINGTON      CLEAR     46  44  93 CALM      30.12S FOG
MARSHALL       MOCLDY    55  51  89 CALM      30.08S
MOUNT PLEASANT CLEAR     50  48  91 CALM      30.10S
MUSKEGON       PTCLDY    54  48  80 N5        30.11S
SOUTH HAVEN    MOCLDY    53  49  87 NE6       30.10R
$$
MIZ016>042-080800-
NORTHERN LOWER MICHIGAN

CITY           SKY/WX    TMP DP  RH WIND       PRES   REMARKS
ALPENA         CLEAR     51  46  83 CALM      30.11S
BEAVER ISLAND  CLEAR     43  43  98 CALM      30.13R
BELLAIRE       CLEAR     45  44  96 CALM      30.13S FOG
CADILLAC       CLEAR     44  43  96 CALM      30.12S
CHARLEVOIX     CLEAR     49  49  97 CALM      30.15S
FRANKFORT      CLEAR     48  42  81 CALM      30.12S
GAYLORD        CLEAR     50  47  89 CALM      30.12S
GRAYLING       CLEAR     44  43  97 CALM      30.12S FOG
HARBOR SPRINGS CLEAR     47  45  94 CALM      30.12S
HOUGHTON LAKE  CLEAR     45  44  97 CALM      30.13R
MANISTEE       CLEAR    N/A N/A N/A CALM      30.13R
OSCODA         CLEAR     49  48  97 CALM      30.09S
PELLSTON       CLEAR     42  41  96 CALM      30.13R
ROGERS CITY    CLEAR     51  47  87 W3        30.12S
TRAVERSE CITY  CLEAR     50  47  89 CALM      30.11R
$$
MIZ007>008-015-080800-
EASTERN UPPER MICHIGAN

CITY           SKY/WX    TMP DP  RH WIND       PRES   REMARKS
KINROSS        CLEAR     46  43  87 CALM      30.10S
MACKINAC ISLAN CLEAR     50  44  80 N9        30.11R
NEWBERRY       CLEAR     43  42  98 CALM      30.12S
S. S. MARIE    CLEAR     45  43  93 W3        30.10R
$$
MIZ004>006-011>014-085-080800-
CENTRAL UPPER MICHIGAN

CITY           SKY/WX    TMP DP  RH WIND       PRES   REMARKS
MANISTIQUE     CLEAR     40  39  95 CALM      30.11S
ESCANABA       CLEAR     46  43  87 W3        30.12R
MENOMINEE      CLEAR     48  46  93 CALM      30.12S
SAWYER-GWINN   CLEAR     47  43  86 CALM      30.12S
$$
MIZ001>003-009>011-084-080800-
WESTERN UPPER MICHIGAN

CITY           SKY/WX    TMP DP  RH WIND       PRES   REMARKS
IRON MOUNTAIN  CLEAR     46  43  89 CALM      30.12S
HOUGHTON       CLEAR     52  44  74 NW10      30.09R
COPPER HARBOR    N/A     58  41  53 W7        30.07F
IRONWOOD       CLEAR     45  45 100 CALM      30.09S
$$

ABBREVIATIONS USED IN REMARKS
   TC - TEMPERATURE IN CELSIUS
  WCI - WIND CHILL INDEX
   HX - HEAT INDEX
  VSB - VISIBILITY



USA.gov is the U.S. government's official web portal to all federal, state and local government web resources and services.